Regional Weather Roundup
Issued by NWS

Home | Current Version | Previous Version | Graphics & Text | Print | Product List | Glossary On
Versions: 1 2 3 4 5 6 7 8 9 10 11 12 13 14 15 16 17 18 19 20 21 22 23 24 25 26 27 28 29 30 31 32 33 34 35 36 37 38 39 40 41 42 43 44 45 46 47 48 49 50
000
ASUS43 KFSD 191510
RWRSD

WEATHER ROUNDUP FOR SOUTH DAKOTA
NATIONAL WEATHER SERVICE SIOUX FALLS SD
1000 AM CDT THU OCT 19 2017

NOTE: "FAIR" INDICATES FEW OR NO CLOUDS BELOW 12,000 FEET WITH NO
SIGNIFICANT WEATHER AND/OR OBSTRUCTIONS TO VISIBILITY.


SDZ001>005-009-010-012>017-191600-
NORTHWEST AND NORTH CENTRAL SOUTH DAKOTA

CITY           SKY/WX    TMP DP  RH WIND       PRES   REMARKS
BUFFALO          N/A     55  29  36 CALM      29.78R
FAITH            N/A     53  31  42 SW9       29.84R
MOBRIDGE       SUNNY     52  40  63 S12       29.83R
$$

SDZ012>016-024>037-041>051-057-063-072>074-191600-
SOUTHWEST AND SOUTH CENTRAL SOUTH DAKOTA

CITY           SKY/WX    TMP DP  RH WIND       PRES   REMARKS
RAPID CTY ARPT SUNNY     59  28  30 SE6       29.88R
PIERRE         SUNNY     53  37  54 SE12      29.88R
CUSTER         SUNNY     57  17  21 W14       29.99R
ELLSWORTH AFB  SUNNY     59  25  27 CALM      29.87
PHILIP         SUNNY     60  36  40 CALM      29.87R
PINE RIDGE     SUNNY     56  32  40 SW9G17    29.96R
SPEARFISH      FAIR      59  25  27 S6        29.90R
WINNER         FAIR      57  38  48 S26G36    29.92F
$$

SDZ004>011-016>023-039-040-191600-
NORTHEAST SOUTH DAKOTA

CITY           SKY/WX    TMP DP  RH WIND       PRES   REMARKS
ABERDEEN       CLOUDY    49  34  56 S16       29.90F
WATERTOWN      CLOUDY    53  37  54 S16       29.95F
BROOKINGS      MOSUNNY   51  34  52 S15       30.02R
SISSETON         N/A     60  35  39 S24G31    29.88S
$$

SDZ017-020-022-023-036>040-048>070-191600-
SOUTHEAST SOUTH DAKOTA

CITY           SKY/WX    TMP DP  RH WIND       PRES   REMARKS
SIOUX FALLS    MOSUNNY   56  36  47 S10       30.04S
HURON          SUNNY     50  35  56 S10       29.96S
CHAMBERLAIN    SUNNY     61  40  46 S12G21    29.94F
MITCHELL       SUNNY     51  37  58 S15       29.99F
YANKTON        SUNNY     49  40  71 CALM      30.04S
$$

ABBREVIATIONS USED IN REMARKS
   TC - TEMPERATURE IN CELSIUS
  WCI - WIND CHILL INDEX
   HX - HEAT INDEX
  VSB - VISIBILITY





USA.gov is the U.S. government's official web portal to all federal, state and local government web resources and services.